Year,Month,Day,Hour,Minute,Value (Times are PST for insolation in W/m^2)
2005,09,06,00,00,0.00
2005,09,06,00,01,0.00
2005,09,06,00,02,0.00
2005,09,06,00,03,0.00
2005,09,06,00,04,0.00
2005,09,06,00,05,0.00
2005,09,06,00,06,0.00
2005,09,06,00,07,0.00
2005,09,06,00,08,0.00
2005,09,06,00,09,0.00
2005,09,06,00,10,0.00
2005,09,06,00,11,0.00
2005,09,06,00,12,0.00
2005,09,06,00,13,0.00
2005,09,06,00,14,0.00
2005,09,06,00,15,0.00
2005,09,06,00,16,0.00
2005,09,06,00,17,0.00
2005,09,06,00,18,0.00
2005,09,06,00,19,0.00
2005,09,06,00,20,0.00
2005,09,06,00,21,0.00
2005,09,06,00,22,0.00
2005,09,06,00,23,0.00
2005,09,06,00,24,0.00
2005,09,06,00,25,0.00
2005,09,06,00,26,0.00
2005,09,06,00,27,0.00
2005,09,06,00,28,0.00
2005,09,06,00,29,0.00
2005,09,06,00,30,0.00
2005,09,06,00,31,0.00
2005,09,06,00,32,0.00
2005,09,06,00,33,0.00
2005,09,06,00,34,0.00
2005,09,06,00,35,0.00
2005,09,06,00,36,0.00
2005,09,06,00,37,0.00
2005,09,06,00,38,0.00
2005,09,06,00,39,0.00
2005,09,06,00,40,0.00
2005,09,06,00,41,0.00
2005,09,06,00,42,0.00
2005,09,06,00,43,0.00
2005,09,06,00,44,0.00
2005,09,06,00,45,0.00
2005,09,06,00,46,0.00
2005,09,06,00,47,0.00
2005,09,06,00,48,0.00
2005,09,06,00,49,0.00
2005,09,06,00,50,0.00
2005,09,06,00,51,0.00
2005,09,06,00,52,0.00
2005,09,06,00,53,0.00
2005,09,06,00,54,0.00
2005,09,06,00,55,0.00
2005,09,06,00,56,0.00
2005,09,06,00,57,0.00
2005,09,06,00,58,0.00
2005,09,06,00,59,0.00
2005,09,06,01,00,0.00
2005,09,06,01,01,0.00
2005,09,06,01,02,0.00
2005,09,06,01,03,0.00
2005,09,06,01,04,0.00
2005,09,06,01,05,0.00
2005,09,06,01,06,0.00
2005,09,06,01,07,0.00
2005,09,06,01,08,0.00
2005,09,06,01,09,0.00
2005,09,06,01,10,0.00
2005,09,06,01,11,0.00
2005,09,06,01,12,0.00
2005,09,06,01,13,0.00
2005,09,06,01,14,0.00
2005,09,06,01,15,0.00
2005,09,06,01,16,0.00
2005,09,06,01,17,0.00
2005,09,06,01,18,0.00
2005,09,06,01,19,0.00
2005,09,06,01,20,0.00
2005,09,06,01,21,0.00
2005,09,06,01,22,0.00
2005,09,06,01,23,0.00
2005,09,06,01,24,0.00
2005,09,06,01,25,0.00
2005,09,06,01,26,0.00
2005,09,06,01,27,0.00
2005,09,06,01,28,0.00
2005,09,06,01,29,0.00
2005,09,06,01,30,0.00
2005,09,06,01,31,0.00
2005,09,06,01,32,0.00
2005,09,06,01,33,0.00
2005,09,06,01,34,0.00
2005,09,06,01,35,0.00
2005,09,06,01,36,0.00
2005,09,06,01,37,0.00
2005,09,06,01,38,0.00
2005,09,06,01,39,0.00
2005,09,06,01,40,0.00
2005,09,06,01,41,0.00
2005,09,06,01,42,0.00
2005,09,06,01,43,0.00
2005,09,06,01,44,0.00
2005,09,06,01,45,0.00
2005,09,06,01,46,0.00
2005,09,06,01,47,0.00
2005,09,06,01,48,0.00
2005,09,06,01,49,0.00
2005,09,06,01,50,0.00
2005,09,06,01,51,0.00
2005,09,06,01,52,0.00
2005,09,06,01,53,0.00
2005,09,06,01,54,0.00
2005,09,06,01,55,0.00
2005,09,06,01,56,0.00
2005,09,06,01,57,0.00
2005,09,06,01,58,0.00
2005,09,06,01,59,0.00
2005,09,06,02,00,0.00
2005,09,06,02,01,0.00
2005,09,06,02,02,0.00
2005,09,06,02,03,0.00
2005,09,06,02,04,0.00
2005,09,06,02,05,0.00
2005,09,06,02,06,0.00
2005,09,06,02,07,0.00
2005,09,06,02,08,0.00
2005,09,06,02,09,0.00
2005,09,06,02,10,0.00
2005,09,06,02,11,0.00
2005,09,06,02,12,0.00
2005,09,06,02,13,0.00
2005,09,06,02,14,0.00
2005,09,06,02,15,0.00
2005,09,06,02,16,0.00
2005,09,06,02,17,0.00
2005,09,06,02,18,0.00
2005,09,06,02,19,0.00
2005,09,06,02,20,0.00
2005,09,06,02,21,0.00
2005,09,06,02,22,0.00
2005,09,06,02,23,0.00
2005,09,06,02,24,0.00
2005,09,06,02,25,0.00
2005,09,06,02,26,0.00
2005,09,06,02,27,0.00
2005,09,06,02,28,0.00
2005,09,06,02,29,0.00
2005,09,06,02,30,0.00
2005,09,06,02,31,0.00
2005,09,06,02,32,0.00
2005,09,06,02,33,0.00
2005,09,06,02,34,0.00
2005,09,06,02,35,0.00
2005,09,06,02,36,0.00
2005,09,06,02,37,0.00
2005,09,06,02,38,0.00
2005,09,06,02,39,0.00
2005,09,06,02,40,0.00
2005,09,06,02,41,0.00
2005,09,06,02,42,0.00
2005,09,06,02,43,0.00
2005,09,06,02,44,0.00
2005,09,06,02,45,0.00
2005,09,06,02,46,0.00
2005,09,06,02,47,0.00
2005,09,06,02,48,0.00
2005,09,06,02,49,0.00
2005,09,06,02,50,0.00
2005,09,06,02,51,0.00
2005,09,06,02,52,0.00
2005,09,06,02,53,0.00
2005,09,06,02,54,0.00
2005,09,06,02,55,0.00
2005,09,06,02,56,0.00
2005,09,06,02,57,0.00
2005,09,06,02,58,0.00
2005,09,06,02,59,0.00
2005,09,06,03,00,0.00
2005,09,06,03,01,0.00
2005,09,06,03,02,0.00
2005,09,06,03,03,0.00
2005,09,06,03,04,0.00
2005,09,06,03,05,0.00
2005,09,06,03,06,0.00
2005,09,06,03,07,0.00
2005,09,06,03,08,0.00
2005,09,06,03,09,0.00
2005,09,06,03,10,0.00
2005,09,06,03,11,0.00
2005,09,06,03,12,0.00
2005,09,06,03,13,0.00
2005,09,06,03,14,0.00
2005,09,06,03,15,0.00
2005,09,06,03,16,0.00
2005,09,06,03,17,0.00
2005,09,06,03,18,0.00
2005,09,06,03,19,0.00
2005,09,06,03,20,0.00
2005,09,06,03,21,0.00
2005,09,06,03,22,0.00
2005,09,06,03,23,0.00
2005,09,06,03,24,0.00
2005,09,06,03,25,0.00
2005,09,06,03,26,0.00
2005,09,06,03,27,0.00
2005,09,06,03,28,0.00
2005,09,06,03,29,0.00
2005,09,06,03,30,0.00
2005,09,06,03,31,0.00
2005,09,06,03,32,0.00
2005,09,06,03,33,0.00
2005,09,06,03,34,0.00
2005,09,06,03,35,0.00
2005,09,06,03,36,0.00
2005,09,06,03,37,0.00
2005,09,06,03,38,0.00
2005,09,06,03,39,0.00
2005,09,06,03,40,0.00
2005,09,06,03,41,0.00
2005,09,06,03,42,0.00
2005,09,06,03,43,0.00
2005,09,06,03,44,0.00
2005,09,06,03,45,0.00
2005,09,06,03,46,0.00
2005,09,06,03,47,0.00
2005,09,06,03,48,0.00
2005,09,06,03,49,0.00
2005,09,06,03,50,0.00
2005,09,06,03,51,0.00
2005,09,06,03,52,0.00
2005,09,06,03,53,0.00
2005,09,06,03,54,0.00
2005,09,06,03,55,0.00
2005,09,06,03,56,0.00
2005,09,06,03,57,0.00
2005,09,06,03,58,0.00
2005,09,06,03,59,0.00
2005,09,06,04,00,0.00
2005,09,06,04,01,0.00
2005,09,06,04,02,0.00
2005,09,06,04,03,0.00
2005,09,06,04,04,0.00
2005,09,06,04,05,0.00
2005,09,06,04,06,0.00
2005,09,06,04,07,0.00
2005,09,06,04,08,0.00
2005,09,06,04,09,0.00
2005,09,06,04,10,0.00
2005,09,06,04,11,0.00
2005,09,06,04,12,0.00
2005,09,06,04,13,0.00
2005,09,06,04,14,0.00
2005,09,06,04,15,0.00
2005,09,06,04,16,0.00
2005,09,06,04,17,0.00
2005,09,06,04,18,0.00
2005,09,06,04,19,0.00
2005,09,06,04,20,0.00
2005,09,06,04,21,0.00
2005,09,06,04,22,0.00
2005,09,06,04,23,0.00
2005,09,06,04,24,0.00
2005,09,06,04,25,0.00
2005,09,06,04,26,0.00
2005,09,06,04,27,0.00
2005,09,06,04,28,0.00
2005,09,06,04,29,0.00
2005,09,06,04,30,0.00
2005,09,06,04,31,0.00
2005,09,06,04,32,0.00
2005,09,06,04,33,0.00
2005,09,06,04,34,0.00
2005,09,06,04,35,0.00
2005,09,06,04,36,0.00
2005,09,06,04,37,0.00
2005,09,06,04,38,0.00
2005,09,06,04,39,0.00
2005,09,06,04,40,0.00
2005,09,06,04,41,0.00
2005,09,06,04,42,0.00
2005,09,06,04,43,0.00
2005,09,06,04,44,0.00
2005,09,06,04,45,0.00
2005,09,06,04,46,0.00
2005,09,06,04,47,0.00
2005,09,06,04,48,0.00
2005,09,06,04,49,0.00
2005,09,06,04,50,0.00
2005,09,06,04,51,0.00
2005,09,06,04,52,0.00
2005,09,06,04,53,0.00
2005,09,06,04,54,0.00
2005,09,06,04,55,0.00
2005,09,06,04,56,0.00
2005,09,06,04,57,0.00
2005,09,06,04,58,0.00
2005,09,06,04,59,0.00
2005,09,06,05,00,0.00
2005,09,06,05,01,0.00
2005,09,06,05,02,0.00
2005,09,06,05,03,0.00
2005,09,06,05,04,0.00
2005,09,06,05,05,0.00
2005,09,06,05,06,0.00
2005,09,06,05,07,0.00
2005,09,06,05,08,0.00
2005,09,06,05,09,0.00
2005,09,06,05,10,0.00
2005,09,06,05,11,0.00
2005,09,06,05,12,0.00
2005,09,06,05,13,0.00
2005,09,06,05,14,0.00
2005,09,06,05,15,0.00
2005,09,06,05,16,0.00
2005,09,06,05,17,0.00
2005,09,06,05,18,0.00
2005,09,06,05,19,0.00
2005,09,06,05,20,0.00
2005,09,06,05,21,0.00
2005,09,06,05,22,0.00
2005,09,06,05,23,0.00
2005,09,06,05,24,0.00
2005,09,06,05,25,0.00
2005,09,06,05,26,0.00
2005,09,06,05,27,0.00
2005,09,06,05,28,0.00
2005,09,06,05,29,0.00
2005,09,06,05,30,0.00
2005,09,06,05,31,0.00
2005,09,06,05,32,0.00
2005,09,06,05,33,0.00
2005,09,06,05,34,0.00
2005,09,06,05,35,0.00
2005,09,06,05,36,0.00
2005,09,06,05,37,0.00
2005,09,06,05,38,0.00
2005,09,06,05,39,0.00
2005,09,06,05,40,0.00
2005,09,06,05,41,0.00
2005,09,06,05,42,0.00
2005,09,06,05,43,0.00
2005,09,06,05,44,0.00
2005,09,06,05,45,0.00
2005,09,06,05,46,0.00
2005,09,06,05,47,0.00
2005,09,06,05,48,0.00
2005,09,06,05,49,0.00
2005,09,06,05,50,0.00
2005,09,06,05,51,0.00
2005,09,06,05,52,0.00
2005,09,06,05,53,0.00
2005,09,06,05,54,0.00
2005,09,06,05,55,0.00
2005,09,06,05,56,0.00
2005,09,06,05,57,0.00
2005,09,06,05,58,0.00
2005,09,06,05,59,0.00
2005,09,06,06,00,0.00
2005,09,06,06,01,0.00
2005,09,06,06,02,0.00
2005,09,06,06,03,0.00
2005,09,06,06,04,0.00
2005,09,06,06,05,0.00
2005,09,06,06,06,0.00
2005,09,06,06,07,0.00
2005,09,06,06,08,0.00
2005,09,06,06,09,0.00
2005,09,06,06,10,0.00
2005,09,06,06,11,0.00
2005,09,06,06,12,0.00
2005,09,06,06,13,0.00
2005,09,06,06,14,0.00
2005,09,06,06,15,0.00
2005,09,06,06,16,0.00
2005,09,06,06,17,0.00
2005,09,06,06,18,0.00
2005,09,06,06,19,0.00
2005,09,06,06,20,0.00
2005,09,06,06,21,0.00
2005,09,06,06,22,0.00
2005,09,06,06,23,0.00
2005,09,06,06,24,0.00
2005,09,06,06,25,0.00
2005,09,06,06,26,0.00
2005,09,06,06,27,0.00
2005,09,06,06,28,0.00
2005,09,06,06,29,0.00
2005,09,06,06,30,0.00
2005,09,06,06,31,0.00
2005,09,06,06,32,0.00
2005,09,06,06,33,0.00
2005,09,06,06,34,0.00
2005,09,06,06,35,0.00
2005,09,06,06,36,0.00
2005,09,06,06,37,0.00
2005,09,06,06,38,2.60
2005,09,06,06,39,5.00
2005,09,06,06,40,5.00
2005,09,06,06,41,5.00
2005,09,06,06,42,5.00
2005,09,06,06,43,5.00
2005,09,06,06,44,6.10
2005,09,06,06,45,7.00
2005,09,06,06,46,7.00
2005,09,06,06,47,7.30
2005,09,06,06,48,9.00
2005,09,06,06,49,9.00
2005,09,06,06,50,9.00
2005,09,06,06,51,10.40
2005,09,06,06,52,11.00
2005,09,06,06,53,11.00
2005,09,06,06,54,11.00
2005,09,06,06,55,11.00
2005,09,06,06,56,11.00
2005,09,06,06,57,11.00
2005,09,06,06,58,11.00
2005,09,06,06,59,11.20
2005,09,06,07,00,12.00
2005,09,06,07,01,12.00
2005,09,06,07,02,12.00
2005,09,06,07,03,12.00
2005,09,06,07,04,12.00
2005,09,06,07,05,12.00
2005,09,06,07,06,12.70
2005,09,06,07,07,14.00
2005,09,06,07,08,14.00
2005,09,06,07,09,17.10
2005,09,06,07,10,18.00
2005,09,06,07,11,18.00
2005,09,06,07,12,18.00
2005,09,06,07,13,19.60
2005,09,06,07,14,19.70
2005,09,06,07,15,18.20
2005,09,06,07,16,18.00
2005,09,06,07,17,18.00
2005,09,06,07,18,19.20
2005,09,06,07,19,22.10
2005,09,06,07,20,23.00
2005,09,06,07,21,27.10
2005,09,06,07,22,31.60
2005,09,06,07,23,31.10
2005,09,06,07,24,36.50
2005,09,06,07,25,39.00
2005,09,06,07,26,39.00
2005,09,06,07,27,39.00
2005,09,06,07,28,53.70
2005,09,06,07,29,59.30
2005,09,06,07,30,62.40
2005,09,06,07,31,64.10
2005,09,06,07,32,66.50
2005,09,06,07,33,67.00
2005,09,06,07,34,66.10
2005,09,06,07,35,63.00
2005,09,06,07,36,70.70
2005,09,06,07,37,77.80
2005,09,06,07,38,67.70
2005,09,06,07,39,64.40
2005,09,06,07,40,51.90
2005,09,06,07,41,56.00
2005,09,06,07,42,56.00
2005,09,06,07,43,62.70
2005,09,06,07,44,109.00
2005,09,06,07,45,152.50
2005,09,06,07,46,158.50
2005,09,06,07,47,160.00
2005,09,06,07,48,160.00
2005,09,06,07,49,160.00
2005,09,06,07,50,165.70
2005,09,06,07,51,167.50
2005,09,06,07,52,172.40
2005,09,06,07,53,174.00
2005,09,06,07,54,174.00
2005,09,06,07,55,178.50
2005,09,06,07,56,182.60
2005,09,06,07,57,183.40
2005,09,06,07,58,188.40
2005,09,06,07,59,190.00
2005,09,06,08,00,190.00
2005,09,06,08,01,190.00
2005,09,06,08,02,198.60
2005,09,06,08,03,200.50
2005,09,06,08,04,204.50
2005,09,06,08,05,207.10
2005,09,06,08,06,210.20
2005,09,06,08,07,213.00
2005,09,06,08,08,215.70
2005,09,06,08,09,220.10
2005,09,06,08,10,222.00
2005,09,06,08,11,225.90
2005,09,06,08,12,228.20
2005,09,06,08,13,229.70
2005,09,06,08,14,233.50
2005,09,06,08,15,237.40
2005,09,06,08,16,239.60
2005,09,06,08,17,241.00
2005,09,06,08,18,243.90
2005,09,06,08,19,249.10
2005,09,06,08,20,250.90
2005,09,06,08,21,255.30
2005,09,06,08,22,258.00
2005,09,06,08,23,260.90
2005,09,06,08,24,263.30
2005,09,06,08,25,266.20
2005,09,06,08,26,267.00
2005,09,06,08,27,267.00
2005,09,06,08,28,269.80
2005,09,06,08,29,277.60
2005,09,06,08,30,280.20
2005,09,06,08,31,281.00
2005,09,06,08,32,281.00
2005,09,06,08,33,283.00
2005,09,06,08,34,290.00
2005,09,06,08,35,291.00
2005,09,06,08,36,296.50
2005,09,06,08,37,295.00
2005,09,06,08,38,267.30
2005,09,06,08,39,276.00
2005,09,06,08,40,285.40
2005,09,06,08,41,301.50
2005,09,06,08,42,310.50
2005,09,06,08,43,315.00
2005,09,06,08,44,315.00
2005,09,06,08,45,317.60
2005,09,06,08,46,328.00
2005,09,06,08,47,328.00
2005,09,06,08,48,318.70
2005,09,06,08,49,292.90
2005,09,06,08,50,328.10
2005,09,06,08,51,324.00
2005,09,06,08,52,327.00
2005,09,06,08,53,327.00
2005,09,06,08,54,327.00
2005,09,06,08,55,327.00
2005,09,06,08,56,286.70
2005,09,06,08,57,327.60
2005,09,06,08,58,322.50
2005,09,06,08,59,336.40
2005,09,06,09,00,346.00
2005,09,06,09,01,343.60
2005,09,06,09,02,295.70
2005,09,06,09,03,341.10
2005,09,06,09,04,363.90
2005,09,06,09,05,337.40
2005,09,06,09,06,322.00
2005,09,06,09,07,345.00
2005,09,06,09,08,330.00
2005,09,06,09,09,330.00
2005,09,06,09,10,332.70
2005,09,06,09,11,285.40
2005,09,06,09,12,263.20
2005,09,06,09,13,307.50
2005,09,06,09,14,318.00
2005,09,06,09,15,318.00
2005,09,06,09,16,318.00
2005,09,06,09,17,350.50
2005,09,06,09,18,363.50
2005,09,06,09,19,362.80
2005,09,06,09,20,370.50
2005,09,06,09,21,388.20
2005,09,06,09,22,419.00
2005,09,06,09,23,420.00
2005,09,06,09,24,382.00
2005,09,06,09,25,393.40
2005,09,06,09,26,422.00
2005,09,06,09,27,421.20
2005,09,06,09,28,420.00
2005,09,06,09,29,435.70
2005,09,06,09,30,456.30
2005,09,06,09,31,435.40
2005,09,06,09,32,447.10
2005,09,06,09,33,452.00
2005,09,06,09,34,452.00
2005,09,06,09,35,394.60
2005,09,06,09,36,396.90
2005,09,06,09,37,415.90
2005,09,06,09,38,483.00
2005,09,06,09,39,487.10
2005,09,06,09,40,492.00
2005,09,06,09,41,495.00
2005,09,06,09,42,497.00
2005,09,06,09,43,501.00
2005,09,06,09,44,501.00
2005,09,06,09,45,502.40
2005,09,06,09,46,508.00
2005,09,06,09,47,503.50
2005,09,06,09,48,510.90
2005,09,06,09,49,508.00
2005,09,06,09,50,506.50
2005,09,06,09,51,497.70
2005,09,06,09,52,479.00
2005,09,06,09,53,502.70
2005,09,06,09,54,512.50
2005,09,06,09,55,505.30
2005,09,06,09,56,511.90
2005,09,06,09,57,520.50
2005,09,06,09,58,526.00
2005,09,06,09,59,526.00
2005,09,06,10,00,526.00
2005,09,06,10,01,526.00
2005,09,06,10,02,497.80
2005,09,06,10,03,473.80
2005,09,06,10,04,487.40
2005,09,06,10,05,485.00
2005,09,06,10,06,475.40
2005,09,06,10,07,483.70
2005,09,06,10,08,515.80
2005,09,06,10,09,518.70
2005,09,06,10,10,520.00
2005,09,06,10,11,465.50
2005,09,06,10,12,454.00
2005,09,06,10,13,478.50
2005,09,06,10,14,536.30
2005,09,06,10,15,530.90
2005,09,06,10,16,553.20
2005,09,06,10,17,572.90
2005,09,06,10,18,575.00
2005,09,06,10,19,576.30
2005,09,06,10,20,580.00
2005,09,06,10,21,580.00
2005,09,06,10,22,583.00
2005,09,06,10,23,584.90
2005,09,06,10,24,585.00
2005,09,06,10,25,586.30
2005,09,06,10,26,588.10
2005,09,06,10,27,587.00
2005,09,06,10,28,580.00
2005,09,06,10,29,567.90
2005,09,06,10,30,585.40
2005,09,06,10,31,588.70
2005,09,06,10,32,593.00
2005,09,06,10,33,598.40
2005,09,06,10,34,604.10
2005,09,06,10,35,605.20
2005,09,06,10,36,608.40
2005,09,06,10,37,610.80
2005,09,06,10,38,612.50
2005,09,06,10,39,614.30
2005,09,06,10,40,616.60
2005,09,06,10,41,617.00
2005,09,06,10,42,617.00
2005,09,06,10,43,619.70
2005,09,06,10,44,626.10
2005,09,06,10,45,630.10
2005,09,06,10,46,631.00
2005,09,06,10,47,632.90
2005,09,06,10,48,633.00
2005,09,06,10,49,634.40
2005,09,06,10,50,637.10
2005,09,06,10,51,638.00
2005,09,06,10,52,638.00
2005,09,06,10,53,640.00
2005,09,06,10,54,640.80
2005,09,06,10,55,643.00
2005,09,06,10,56,643.00
2005,09,06,10,57,643.00
2005,09,06,10,58,643.00
2005,09,06,10,59,645.70
2005,09,06,11,00,649.30
2005,09,06,11,01,651.00
2005,09,06,11,02,653.20
2005,09,06,11,03,655.50
2005,09,06,11,04,656.00
2005,09,06,11,05,657.70
2005,09,06,11,06,661.60
2005,09,06,11,07,663.50
2005,09,06,11,08,665.20
2005,09,06,11,09,667.50
2005,09,06,11,10,669.70
2005,09,06,11,11,668.00
2005,09,06,11,12,668.90
2005,09,06,11,13,672.00
2005,09,06,11,14,674.30
2005,09,06,11,15,676.50
2005,09,06,11,16,678.90
2005,09,06,11,17,680.00
2005,09,06,11,18,680.00
2005,09,06,11,19,682.10
2005,09,06,11,20,685.30
2005,09,06,11,21,684.40
2005,09,06,11,22,686.90
2005,09,06,11,23,687.40
2005,09,06,11,24,689.00
2005,09,06,11,25,689.00
2005,09,06,11,26,690.30
2005,09,06,11,27,691.00
2005,09,06,11,28,693.00
2005,09,06,11,29,694.50
2005,09,06,11,30,696.00
2005,09,06,11,31,697.10
2005,09,06,11,32,698.00
2005,09,06,11,33,700.50
2005,09,06,11,34,703.00
2005,09,06,11,35,702.40
2005,09,06,11,36,702.80
2005,09,06,11,37,706.60
2005,09,06,11,38,710.80
2005,09,06,11,39,683.30
2005,09,06,11,40,613.30
2005,09,06,11,41,608.20
2005,09,06,11,42,642.80
2005,09,06,11,43,683.70
2005,09,06,11,44,702.50
2005,09,06,11,45,707.10
2005,09,06,11,46,711.20
2005,09,06,11,47,717.00
2005,09,06,11,48,717.00
2005,09,06,11,49,717.00
2005,09,06,11,50,717.00
2005,09,06,11,51,721.60
2005,09,06,11,52,722.00
2005,09,06,11,53,722.70
2005,09,06,11,54,724.00
2005,09,06,11,55,726.50
2005,09,06,11,56,728.80
2005,09,06,11,57,729.20
2005,09,06,11,58,731.40
2005,09,06,11,59,733.70
2005,09,06,12,00,735.00
2005,09,06,12,01,736.30
2005,09,06,12,02,737.00
2005,09,06,12,03,737.20
2005,09,06,12,04,740.90
2005,09,06,12,05,744.00
2005,09,06,12,06,744.00
2005,09,06,12,07,744.00
2005,09,06,12,08,744.00
2005,09,06,12,09,749.00
2005,09,06,12,10,751.30
2005,09,06,12,11,752.80
2005,09,06,12,12,752.90
2005,09,06,12,13,752.00
2005,09,06,12,14,752.00
2005,09,06,12,15,689.10
2005,09,06,12,16,652.30
2005,09,06,12,17,635.90
2005,09,06,12,18,703.70
2005,09,06,12,19,742.00
2005,09,06,12,20,762.90
2005,09,06,12,21,765.20
2005,09,06,12,22,766.00
2005,09,06,12,23,756.40
2005,09,06,12,24,748.30
2005,09,06,12,25,757.20
2005,09,06,12,26,760.80
2005,09,06,12,27,763.00
2005,09,06,12,28,763.60
2005,09,06,12,29,765.00
2005,09,06,12,30,765.60
2005,09,06,12,31,766.00
2005,09,06,12,32,761.50
2005,09,06,12,33,763.00
2005,09,06,12,34,763.00
2005,09,06,12,35,763.90
2005,09,06,12,36,765.00
2005,09,06,12,37,765.00
2005,09,06,12,38,763.30
2005,09,06,12,39,765.00
2005,09,06,12,40,765.00
2005,09,06,12,41,765.00
2005,09,06,12,42,765.70
2005,09,06,12,43,767.60
2005,09,06,12,44,768.00
2005,09,06,12,45,768.00
2005,09,06,12,46,769.60
2005,09,06,12,47,772.00
2005,09,06,12,48,772.00
2005,09,06,12,49,770.40
2005,09,06,12,50,770.00
2005,09,06,12,51,769.00
2005,09,06,12,52,766.70
2005,09,06,12,53,770.10
2005,09,06,12,54,772.70
2005,09,06,12,55,767.20
2005,09,06,12,56,766.90
2005,09,06,12,57,772.70
2005,09,06,12,58,772.00
2005,09,06,12,59,769.70
2005,09,06,13,00,736.00
2005,09,06,13,01,761.90
2005,09,06,13,02,768.80
2005,09,06,13,03,774.90
2005,09,06,13,04,777.30
2005,09,06,13,05,775.00
2005,09,06,13,06,775.00
2005,09,06,13,07,772.90
2005,09,06,13,08,724.00
2005,09,06,13,09,731.30
2005,09,06,13,10,749.30
2005,09,06,13,11,752.00
2005,09,06,13,12,767.00
2005,09,06,13,13,772.00
2005,09,06,13,14,773.40
2005,09,06,13,15,775.00
2005,09,06,13,16,775.00
2005,09,06,13,17,772.00
2005,09,06,13,18,768.40
2005,09,06,13,19,765.30
2005,09,06,13,20,766.40
2005,09,06,13,21,769.40
2005,09,06,13,22,773.60
2005,09,06,13,23,765.90
2005,09,06,13,24,775.10
2005,09,06,13,25,777.00
2005,09,06,13,26,756.00
2005,09,06,13,27,717.80
2005,09,06,13,28,681.80
2005,09,06,13,29,719.00
2005,09,06,13,30,694.00
2005,09,06,13,31,722.50
2005,09,06,13,32,724.00
2005,09,06,13,33,746.10
2005,09,06,13,34,761.20
2005,09,06,13,35,744.20
2005,09,06,13,36,750.30
2005,09,06,13,37,775.00
2005,09,06,13,38,775.00
2005,09,06,13,39,775.00
2005,09,06,13,40,776.10
2005,09,06,13,41,760.00
2005,09,06,13,42,723.80
2005,09,06,13,43,725.10
2005,09,06,13,44,751.00
2005,09,06,13,45,751.00
2005,09,06,13,46,751.00
2005,09,06,13,47,756.00
2005,09,06,13,48,764.10
2005,09,06,13,49,764.80
2005,09,06,13,50,759.00
2005,09,06,13,51,759.00
2005,09,06,13,52,759.00
2005,09,06,13,53,755.20
2005,09,06,13,54,749.30
2005,09,06,13,55,745.00
2005,09,06,13,56,745.00
2005,09,06,13,57,745.00
2005,09,06,13,58,696.90
2005,09,06,13,59,727.50
2005,09,06,14,00,748.70
2005,09,06,14,01,749.50
2005,09,06,14,02,740.50
2005,09,06,14,03,741.30
2005,09,06,14,04,751.60
2005,09,06,14,05,752.40
2005,09,06,14,06,751.70
2005,09,06,14,07,748.50
2005,09,06,14,08,748.70
2005,09,06,14,09,751.50
2005,09,06,14,10,744.20
2005,09,06,14,11,683.50
2005,09,06,14,12,751.90
2005,09,06,14,13,750.10
2005,09,06,14,14,747.00
2005,09,06,14,15,745.40
2005,09,06,14,16,744.70
2005,09,06,14,17,744.20
2005,09,06,14,18,743.50
2005,09,06,14,19,740.00
2005,09,06,14,20,740.00
2005,09,06,14,21,733.20
2005,09,06,14,22,728.70
2005,09,06,14,23,729.00
2005,09,06,14,24,734.70
2005,09,06,14,25,733.00
2005,09,06,14,26,733.00
2005,09,06,14,27,734.30
2005,09,06,14,28,732.10
2005,09,06,14,29,732.50
2005,09,06,14,30,727.30
2005,09,06,14,31,724.00
2005,09,06,14,32,724.00
2005,09,06,14,33,722.20
2005,09,06,14,34,712.90
2005,09,06,14,35,718.30
2005,09,06,14,36,720.60
2005,09,06,14,37,717.60
2005,09,06,14,38,715.00
2005,09,06,14,39,715.00
2005,09,06,14,40,714.20
2005,09,06,14,41,712.20
2005,09,06,14,42,712.00
2005,09,06,14,43,710.30
2005,09,06,14,44,706.00
2005,09,06,14,45,705.00
2005,09,06,14,46,703.40
2005,09,06,14,47,701.10
2005,09,06,14,48,701.00
2005,09,06,14,49,701.00
2005,09,06,14,50,697.20
2005,09,06,14,51,696.50
2005,09,06,14,52,693.90
2005,09,06,14,53,692.80
2005,09,06,14,54,690.50
2005,09,06,14,55,689.00
2005,09,06,14,56,689.00
2005,09,06,14,57,689.00
2005,09,06,14,58,683.20
2005,09,06,14,59,682.20
2005,09,06,15,00,682.80
2005,09,06,15,01,679.60
2005,09,06,15,02,679.00
2005,09,06,15,03,679.00
2005,09,06,15,04,679.00
2005,09,06,15,05,679.00
2005,09,06,15,06,679.00
2005,09,06,15,07,670.30
2005,09,06,15,08,665.70
2005,09,06,15,09,670.00
2005,09,06,15,10,666.50
2005,09,06,15,11,666.00
2005,09,06,15,12,666.00
2005,09,06,15,13,663.60
2005,09,06,15,14,661.00
2005,09,06,15,15,657.90
2005,09,06,15,16,657.00
2005,09,06,15,17,657.00
2005,09,06,15,18,656.00
2005,09,06,15,19,652.10
2005,09,06,15,20,651.30
2005,09,06,15,21,648.10
2005,09,06,15,22,647.00
2005,09,06,15,23,646.60
2005,09,06,15,24,643.90
2005,09,06,15,25,642.00
2005,09,06,15,26,639.50
2005,09,06,15,27,638.00
2005,09,06,15,28,636.00
2005,09,06,15,29,634.00
2005,09,06,15,30,631.00
2005,09,06,15,31,629.90
2005,09,06,15,32,629.00
2005,09,06,15,33,624.90
2005,09,06,15,34,623.70
2005,09,06,15,35,622.00
2005,09,06,15,36,619.90
2005,09,06,15,37,617.00
2005,09,06,15,38,617.00
2005,09,06,15,39,615.30
2005,09,06,15,40,612.00
2005,09,06,15,41,612.00
2005,09,06,15,42,610.40
2005,09,06,15,43,606.90
2005,09,06,15,44,605.30
2005,09,06,15,45,603.30
2005,09,06,15,46,602.50
2005,09,06,15,47,598.70
2005,09,06,15,48,598.00
2005,09,06,15,49,598.00
2005,09,06,15,50,598.00
2005,09,06,15,51,591.80
2005,09,06,15,52,588.30
2005,09,06,15,53,585.00
2005,09,06,15,54,583.60
2005,09,06,15,55,580.80
2005,09,06,15,56,580.00
2005,09,06,15,57,578.10
2005,09,06,15,58,577.00
2005,09,06,15,59,577.00
2005,09,06,16,00,577.00
2005,09,06,16,01,572.70
2005,09,06,16,02,568.40
2005,09,06,16,03,564.30
2005,09,06,16,04,562.50
2005,09,06,16,05,560.20
2005,09,06,16,06,557.90
2005,09,06,16,07,555.00
2005,09,06,16,08,554.00
2005,09,06,16,09,553.40
2005,09,06,16,10,547.80
2005,09,06,16,11,547.00
2005,09,06,16,12,544.80
2005,09,06,16,13,541.70
2005,09,06,16,14,538.60
2005,09,06,16,15,538.00
2005,09,06,16,16,536.60
2005,09,06,16,17,532.30
2005,09,06,16,18,529.90
2005,09,06,16,19,529.00
2005,09,06,16,20,524.70
2005,09,06,16,21,521.70
2005,09,06,16,22,519.70
2005,09,06,16,23,518.10
2005,09,06,16,24,515.90
2005,09,06,16,25,513.60
2005,09,06,16,26,513.00
2005,09,06,16,27,506.00
2005,09,06,16,28,505.40
2005,09,06,16,29,504.00
2005,09,06,16,30,504.00
2005,09,06,16,31,504.00
2005,09,06,16,32,504.00
2005,09,06,16,33,504.00
2005,09,06,16,34,499.00
2005,09,06,16,35,487.20
2005,09,06,16,36,485.00
2005,09,06,16,37,482.70
2005,09,06,16,38,480.10
2005,09,06,16,39,477.60
2005,09,06,16,40,476.00
2005,09,06,16,41,473.00
2005,09,06,16,42,468.40
2005,09,06,16,43,468.00
2005,09,06,16,44,467.40
2005,09,06,16,45,460.50
2005,09,06,16,46,458.30
2005,09,06,16,47,455.40
2005,09,06,16,48,452.70
2005,09,06,16,49,450.40
2005,09,06,16,50,447.80
2005,09,06,16,51,445.00
2005,09,06,16,52,445.00
2005,09,06,16,53,441.30
2005,09,06,16,54,436.60
2005,09,06,16,55,432.70
2005,09,06,16,56,430.80
2005,09,06,16,57,427.90
2005,09,06,16,58,425.00
2005,09,06,16,59,423.40
2005,09,06,17,00,419.20
2005,09,06,17,01,417.20
2005,09,06,17,02,412.70
2005,09,06,17,03,410.70
2005,09,06,17,04,408.20
2005,09,06,17,05,404.80
2005,09,06,17,06,401.80
2005,09,06,17,07,399.30
2005,09,06,17,08,396.80
2005,09,06,17,09,396.00
2005,09,06,17,10,393.20
2005,09,06,17,11,388.80
2005,09,06,17,12,385.80